When you browse on this site, cookies collect data to enhance your experience and personalize the content and advertising you see.
Visit our Privacy Policy to learn more. By continuing to use the site, you agree to this use of cookies and data.
  • In Hungary
  • List of Countries
  • For 7 days
  • Water Temperature
  • Weather Map
  • News
  • Weather Widgets
  • user-avatar
    Login

    Hourly Weather Mosjoen

    Today, 26 August, Monday

    Time Temperature Precipitation Wind Pressure Humidity
    00:00 +11°C° 0.1 mm 4 mps 753 mmHg 95%
    01:00 +11°C° 0 mm 3 mps 754 mmHg 97%
    02:00 +10°C° 0.1 mm 3 mps 754 mmHg 97%
    03:00 +10°C° 0.1 mm 3 mps 754 mmHg 96%
    04:00 +10°C° 0.1 mm 2 mps 754 mmHg 96%
    05:00 +10°C° 0.3 mm 3 mps 754 mmHg 95%
    06:00 +11°C° 0.3 mm 3 mps 754 mmHg 94%
    07:00 +11°C° 0.3 mm 3 mps 754 mmHg 93%
    08:00 +11°C° 0.4 mm 3 mps 754 mmHg 92%
    09:00 +11°C° 0.4 mm 3 mps 754 mmHg 91%
    10:00 +11°C° 0.4 mm 3 mps 754 mmHg 90%
    11:00 +11°C° 0.3 mm 3 mps 754 mmHg 91%
    12:00 +12°C° 0.3 mm 4 mps 754 mmHg 92%
    13:00 +12°C° 0.3 mm 4 mps 754 mmHg 92%
    14:00 +14°C° 0.1 mm 4 mps 754 mmHg 89%
    15:00 +16°C° 0.1 mm 3 mps 754 mmHg 85%
    16:00 +18°C° 0.1 mm 3 mps 754 mmHg 81%
    17:00 +17°C° 0 mm 3 mps 754 mmHg 81%
    18:00 +17°C° 0 mm 2 mps 754 mmHg 81%
    19:00 +17°C° 0 mm 2 mps 754 mmHg 81%
    20:00 +16°C° 0 mm 2 mps 754 mmHg 81%
    21:00 +15°C° 0 mm 2 mps 754 mmHg 82%
    22:00 +13°C° 0 mm 3 mps 754 mmHg 82%
    23:00 +13°C° 0 mm 3 mps 754 mmHg 82%

    Tomorrow, 27 August, Tuesday

    Time Temperature Precipitation Wind Pressure Humidity
    00:00 +14°C° 0 mm 2 mps 754 mmHg 82%
    01:00 +14°C° 0 mm 2 mps 754 mmHg 81%
    02:00 +13°C° 0 mm 2 mps 754 mmHg 81%
    03:00 +13°C° 0 mm 2 mps 754 mmHg 82%
    04:00 +12°C° 0 mm 1 mps 754 mmHg 82%
    05:00 +14°C° 0 mm 1 mps 754 mmHg 78%
    06:00 +16°C° 0 mm 1 mps 754 mmHg 74%
    07:00 +19°C° 0 mm 1 mps 754 mmHg 70%
    08:00 +20°C° 0 mm 1 mps 754 mmHg 67%
    09:00 +21°C° 0 mm 1 mps 754 mmHg 63%
    10:00 +22°C° 0 mm 1 mps 754 mmHg 60%
    11:00 +23°C° 0 mm 1 mps 754 mmHg 58%
    12:00 +24°C° 0 mm 1 mps 754 mmHg 56%
    13:00 +25°C° 0 mm 1 mps 754 mmHg 54%
    14:00 +25°C° 0 mm 1 mps 754 mmHg 55%
    15:00 +25°C° 0 mm 2 mps 753 mmHg 55%
    16:00 +25°C° 0 mm 2 mps 753 mmHg 56%
    17:00 +24°C° 0 mm 2 mps 753 mmHg 63%
    18:00 +22°C° 0 mm 1 mps 753 mmHg 71%
    19:00 +20°C° 0 mm 1 mps 753 mmHg 79%
    20:00 +19°C° 0 mm 1 mps 753 mmHg 81%
    21:00 +18°C° 0 mm 1 mps 753 mmHg 82%
    22:00 +16°C° 0 mm 1 mps 753 mmHg 84%
    23:00 +16°C° 0 mm 1 mps 753 mmHg 84%

    Day after tomorrow, 28 August, Wednesday

    Time Temperature Precipitation Wind Pressure Humidity
    00:00 +16°C° 0 mm 1 mps 753 mmHg 84%
    01:00 +15°C° 0 mm 1 mps 753 mmHg 84%
    02:00 +15°C° 0 mm 1 mps 752 mmHg 84%
    03:00 +15°C° 0 mm 1 mps 752 mmHg 84%
    04:00 +15°C° 0 mm 2 mps 751 mmHg 84%
    05:00 +17°C° 0 mm 2 mps 751 mmHg 81%
    06:00 +18°C° 0 mm 2 mps 751 mmHg 79%
    07:00 +19°C° 0 mm 3 mps 750 mmHg 76%
    08:00 +21°C° 0 mm 3 mps 750 mmHg 71%
    09:00 +22°C° 0 mm 3 mps 750 mmHg 66%
    10:00 +24°C° 0 mm 3 mps 749 mmHg 61%
    11:00 +25°C° 0 mm 3 mps 749 mmHg 58%
    12:00 +26°C° 0 mm 3 mps 749 mmHg 55%
    13:00 +26°C° 0 mm 3 mps 749 mmHg 52%
    14:00 +26°C° 0 mm 3 mps 749 mmHg 54%
    15:00 +26°C° 0 mm 3 mps 749 mmHg 56%
    16:00 +26°C° 0 mm 2 mps 749 mmHg 58%
    17:00 +24°C° 0 mm 2 mps 749 mmHg 65%
    18:00 +23°C° 0 mm 1 mps 748 mmHg 72%
    19:00 +21°C° 0 mm 1 mps 748 mmHg 79%
    20:00 +21°C° 0 mm 1 mps 748 mmHg 81%
    21:00 +20°C° 0 mm 1 mps 748 mmHg 83%
    22:00 +19°C° 0 mm 1 mps 748 mmHg 84%
    23:00 +19°C° 0 mm 1 mps 748 mmHg 86%

    29 August, Thursday

    Time Temperature Precipitation Wind Pressure Humidity
    00:00 +18°C° 0 mm 1 mps 748 mmHg 87%
    01:00 +18°C° 0 mm 1 mps 748 mmHg 89%
    02:00 +16°C° 0.1 mm 1 mps 748 mmHg 90%
    03:00 +16°C° 0.1 mm 1 mps 747 mmHg 90%
    04:00 +16°C° 0.1 mm 1 mps 747 mmHg 91%
    05:00 +18°C° 0 mm 1 mps 747 mmHg 89%
    06:00 +19°C° 0 mm 1 mps 747 mmHg 87%
    07:00 +20°C° 0 mm 1 mps 747 mmHg 85%
    08:00 +20°C° 0 mm 2 mps 747 mmHg 81%
    09:00 +21°C° 0 mm 2 mps 747 mmHg 78%
    10:00 +21°C° 0 mm 2 mps 747 mmHg 75%
    11:00 +23°C° 0 mm 2 mps 746 mmHg 72%
    12:00 +23°C° 0 mm 2 mps 746 mmHg 70%
    13:00 +24°C° 0 mm 2 mps 745 mmHg 67%
    14:00 +24°C° 0 mm 3 mps 745 mmHg 67%
    15:00 +24°C° 0 mm 3 mps 744 mmHg 68%
    16:00 +24°C° 0 mm 3 mps 743 mmHg 68%
    17:00 +22°C° 0.1 mm 3 mps 743 mmHg 73%
    18:00 +21°C° 0.1 mm 3 mps 743 mmHg 78%
    19:00 +20°C° 0.1 mm 3 mps 742 mmHg 83%
    20:00 +19°C° 0.9 mm 4 mps 742 mmHg 87%
    21:00 +18°C° 0.9 mm 4 mps 742 mmHg 90%
    22:00 +17°C° 0.9 mm 4 mps 742 mmHg 94%
    23:00 +15°C° 4 mm 4 mps 742 mmHg 95%

    30 August, Friday

    Time Temperature Precipitation Wind Pressure Humidity
    00:00 +14°C° 4 mm 4 mps 743 mmHg 96%
    01:00 +13°C° 4 mm 3 mps 743 mmHg 97%
    02:00 +13°C° 1.6 mm 3 mps 743 mmHg 96%
    03:00 +12°C° 1.6 mm 3 mps 744 mmHg 95%
    04:00 +12°C° 1.6 mm 4 mps 744 mmHg 95%
    05:00 +12°C° 0.2 mm 4 mps 745 mmHg 92%
    06:00 +12°C° 0.2 mm 4 mps 745 mmHg 89%
    07:00 +12°C° 0.2 mm 4 mps 746 mmHg 86%
    08:00 +12°C° 0.1 mm 4 mps 746 mmHg 84%
    09:00 +12°C° 0.1 mm 3 mps 746 mmHg 82%
    10:00 +12°C° 0.1 mm 3 mps 747 mmHg 81%
    11:00 +12°C° 0.1 mm 3 mps 747 mmHg 77%
    12:00 +12°C° 0.1 mm 3 mps 747 mmHg 74%
    13:00 +13°C° 0.1 mm 3 mps 747 mmHg 70%
    14:00 +14°C° 0 mm 2 mps 747 mmHg 66%
    15:00 +15°C° 0 mm 2 mps 747 mmHg 62%
    16:00 +15°C° 0 mm 2 mps 747 mmHg 58%
    17:00 +15°C° 0 mm 2 mps 747 mmHg 62%
    18:00 +14°C° 0 mm 1 mps 747 mmHg 67%
    19:00 +14°C° 0 mm 1 mps 747 mmHg 71%
    20:00 +13°C° 0.1 mm 1 mps 747 mmHg 73%
    21:00 +13°C° 0.1 mm 2 mps 747 mmHg 75%
    22:00 +13°C° 0.1 mm 2 mps 747 mmHg 76%
    23:00 +12°C° 0 mm 2 mps 747 mmHg 79%

    31 August, Saturday

    Time Temperature Precipitation Wind Pressure Humidity
    00:00 +12°C° 0 mm 2 mps 747 mmHg 82%
    01:00 +10°C° 0 mm 2 mps 746 mmHg 85%
    02:00 +10°C° 0 mm 2 mps 746 mmHg 83%
    03:00 +12°C° 0 mm 1 mps 746 mmHg 82%
    04:00 +12°C° 0 mm 1 mps 745 mmHg 80%
    05:00 +13°C° 0 mm 2 mps 745 mmHg 79%
    06:00 +13°C° 0 mm 2 mps 744 mmHg 78%
    07:00 +12°C° 0 mm 3 mps 743 mmHg 77%
    08:00 +14°C° 0 mm 3 mps 742 mmHg 74%
    09:00 +16°C° 0 mm 3 mps 742 mmHg 71%
    10:00 +17°C° 0 mm 4 mps 741 mmHg 68%
    11:00 +17°C° 0 mm 4 mps 741 mmHg 69%
    12:00 +17°C° 0 mm 4 mps 740 mmHg 70%
    13:00 +17°C° 0 mm 3 mps 739 mmHg 71%
    14:00 +17°C° 0 mm 3 mps 739 mmHg 70%
    15:00 +18°C° 0 mm 3 mps 738 mmHg 70%
    16:00 +18°C° 0 mm 3 mps 738 mmHg 69%
    17:00 +17°C° 0 mm 3 mps 738 mmHg 74%
    18:00 +16°C° 0 mm 3 mps 738 mmHg 79%
    19:00 +16°C° 0 mm 3 mps 737 mmHg 83%
    20:00 +14°C° 0.1 mm 3 mps 738 mmHg 86%
    21:00 +14°C° 0.1 mm 3 mps 738 mmHg 89%
    22:00 +14°C° 0.1 mm 3 mps 738 mmHg 91%
    23:00 +13°C° 0.7 mm 3 mps 738 mmHg 93%
    Show more